Wind_Speed
11 11 12 13 13 14 15 16 17 17 17 17 16 15 14 12 10 8 7 5 3 2 1 2 4 5 7 10 12 13 15 16 16 19 20 20 21 23 25 25 26 26 27
11 11 12 12 13 13 14 15 16 16 16 16 16 15 14 12 10 9 7 6 4 3 2 1 2 3 5 8 10 12 13 15 16 17 18 19 20 21 23 25 26 27 27
11 11 11 11 12 13 13 14 14 15 16 16 16 15 14 13 11 9 8 6 4 4 3 2 3 3 4 6 8 10 11 13 15 15 16 17 18 19 20 23 25 27 28
11 11 11 11 12 12 12 13 13 14 15 15 15 15 14 13 12 10 8 7 5 4 4 3 3 4 5 6 7 8 9 11 13 14 15 16 17 18 20 21 23 25 26
12 12 12 12 12 12 12 12 13 13 13 14 14 14 13 13 12 10 9 7 6 5 4 4 3 4 5 6 7 8 9 10 12 13 14 15 16 17 19 21 22 23 25
13 13 13 13 13 12 12 12 12 12 12 13 13 13 13 13 12 11 10 8 7 6 5 5 4 4 5 6 7 8 9 10 11 13 14 15 16 17 18 19 21 22 24
15 15 14 14 14 13 13 13 12 12 12 12 13 12 12 12 12 11 10 9 8 7 6 6 5 5 5 6 7 8 9 10 11 13 14 15 16 17 18 19 21 22 23
16 16 16 15 15 15 14 14 13 13 12 12 12 12 12 12 12 11 11 10 9 8 8 6 6 6 6 6 7 8 10 11 12 13 14 15 16 17 18 19 20 21 21
18 17 17 17 17 16 15 15 14 14 13 13 13 12 12 12 12 11 11 11 10 9 9 8 7 7 7 7 8 9 10 10 12 13 14 15 16 17 17 18 19 20 21
20 19 19 19 19 18 17 16 16 15 15 14 14 13 13 13 12 12 12 11 11 10 10 9 9 8 9 9 9 10 10 11 13 14 15 16 16 17 18 19 20 20 21
22 22 21 21 21 20 19 18 18 17 16 16 15 15 14 14 13 13 13 12 12 11 11 11 11 11 11 11 11 11 12 12 13 14 15 16 17 18 18 19 20 21 22
25 24 24 23 23 22 21 21 20 19 19 18 17 16 16 16 15 15 14 14 14 13 13 12 12 12 13 13 13 14 14 14 15 16 17 18 18 19 19 20 20 21 21
26 26 26 26 25 25 24 23 22 22 21 20 20 19 18 17 17 16 16 15 15 15 15 15 15 14 14 15 15 15 16 16 17 17 18 19 20 20 20 21 21 22 23
29 28 28 28 27 27 26 25 25 24 23 23 22 21 20 20 19 18 18 17 17 17 17 17 17 16 16 17 17 17 18 18 19 19 19 20 20 21 21 22 22 23 24
31 31 31 30 30 29 29 28 27 27 26 25 24 24 23 22 21 21 20 20 19 19 19 19 19 19 19 19 19 19 19 19 20 20 20 21 21 22 22 22 23 24 25
34 34 33 33 32 32 31 30 30 29 28 27 27 26 25 25 24 24 23 22 22 22 21 21 21 21 21 21 21 21 21 21 21 21 22 22 23 23 24 25 25 26 26
36 36 35 35 34 34 33 32 32 31 30 30 29 29 28 27 27 26 26 25 25 24 24 23 23 23 23 24 23 23 23 23 23 23 23 24 24 25 26 26 27 28 28
38 38 38 37 37 36 35 35 34 33 33 32 32 31 30 30 29 28 28 27 27 26 26 26 26 25 25 26 26 26 26 26 25 25 25 26 26 26 27 28 29 30 30
41 40 40 40 39 39 38 37 36 36 35 34 34 34 33 32 32 31 30 29 29 28 28 28 28 27 27 28 28 28 28 28 28 28 28 28 28 28 29 29 30 31 32
42 42 42 42 42 41 40 39 38 38 37 36 36 35 35 34 33 32 32 31 31 30 30 30 30 30 30 30 30 30 30 30 29 29 29 30 30 30 31 31 32 32 33
43 43 43 43 43 42 42 41 40 39 38 38 37 37 36 36 35 34 34 34 33 33 32 32 32 31 31 32 32 31 31 31 31 31 31 31 31 32 32 33 33 34 35
45 44 44 44 44 44 43 42 42 41 40 39 39 38 37 37 36 36 36 35 35 34 34 34 33 33 33 33 33 32 32 32 32 32 32 32 32 33 34 35 35 36 36
45 45 45 45 45 45 45 44 43 42 41 41 40 40 40 39 38 37 37 37 37 36 36 35 35 35 34 34 34 34 33 33 33 33 33 33 34 35 36 37 37 38 38
45 45 45 45 45 45 45 44 43 43 43 43 42 41 41 40 39 39 39 38 38 37 37 36 36 36 36 35 35 35 35 34 34 34 35 35 36 37 38 38 38 39 39
43 44 44 45 45 45 45 45 44 43 43 43 43 42 42 41 41 40 40 39 39 38 38 37 37 36 36 36 35 35 36 36 36 36 36 37 37 38 38 38 38 38 38
42 43 44 44 45 45 45 44 44 44 44 44 44 44 43 43 42 41 41 40 40 39 39 38 38 37 37 37 36 36 36 36 36 37 37 37 38 38 38 37 37 38 38
Wind_Direction
324 332 338 343 347 352 355 359 2 5 8 9 10 10 11 12 13 12 8 3 356 349 257 224 224 220 216 215 216 219 221 225 227 227 227 230 233 235 234 234 236 237 239
317 325 332 338 344 348 352 355 359 3 6 8 9 11 12 12 11 12 10 6 359 349 334 267 236 227 224 220 220 220 223 225 226 228 230 235 236 237 237 236 239 239 240
309 316 324 331 338 342 346 350 354 358 3 5 7 9 11 12 12 11 11 8 4 352 335 307 270 255 245 233 226 224 225 226 227 230 232 235 237 238 240 240 241 240 241
301 307 314 322 330 336 340 344 348 352 358 2 4 6 7 9 11 11 9 8 3 353 340 319 289 264 252 243 235 231 230 230 230 232 234 235 238 240 241 241 242 242 243
292 298 305 312 320 326 331 335 340 345 350 355 359 1 3 5 7 7 6 5 359 348 340 323 302 277 262 251 240 238 239 237 236 236 238 240 243 245 245 245 246 246 246
286 290 296 303 310 315 320 325 330 335 340 346 351 354 357 359 0 360 358 356 355 347 335 322 307 293 277 261 250 248 247 246 245 245 245 248 248 249 250 248 249 248 248
280 284 289 294 300 305 310 315 320 325 329 334 339 344 347 350 353 353 351 348 343 339 335 328 313 302 285 271 264 258 254 252 251 252 253 255 255 255 255 252 252 252 251
277 279 282 287 291 296 301 305 309 314 319 324 328 333 337 340 341 344 345 343 339 334 331 327 318 309 301 285 276 269 261 257 256 256 258 258 258 258 259 256 254 255 254
275 276 277 280 284 289 293 297 300 304 308 313 318 322 325 328 330 332 333 333 332 329 325 321 318 311 305 295 286 279 272 264 261 262 261 260 260 259 259 258 256 256 255
273 274 274 276 279 282 286 289 292 296 299 302 306 310 314 317 319 321 322 323 323 321 317 312 309 305 300 297 293 288 282 274 270 268 266 263 263 264 263 261 260 259 258
272 272 272 273 275 277 280 283 286 288 291 293 296 299 303 306 308 311 312 313 314 313 311 308 303 300 298 296 293 289 284 281 277 271 269 267 267 266 265 264 261 260 259
271 271 271 272 273 275 277 279 281 283 284 286 288 291 294 297 299 302 304 306 306 306 305 305 302 298 295 295 294 290 286 283 281 277 272 271 271 269 267 266 265 262 262
269 269 269 270 271 272 274 275 277 279 280 281 282 284 287 291 293 295 297 299 301 300 300 300 300 299 297 295 294 293 289 286 283 280 278 275 273 271 270 269 268 266 266
268 267 267 268 269 271 272 273 273 275 277 277 278 280 282 285 287 289 291 293 295 295 296 296 296 296 296 295 294 293 291 288 286 283 281 279 276 274 273 271 270 270 269
268 267 266 266 267 269 270 271 272 272 274 274 275 276 278 281 283 284 286 288 290 292 292 293 293 293 293 294 294 293 291 290 288 284 282 280 278 277 276 275 273 272 272
267 266 266 265 265 266 267 268 269 270 270 272 272 273 275 277 279 281 283 285 287 289 291 291 291 291 291 291 291 292 291 290 288 286 283 280 278 278 277 277 277 276 275
265 264 264 264 264 264 265 266 266 267 268 269 269 271 272 274 276 278 280 282 284 286 288 289 290 290 290 289 289 290 289 289 288 287 284 282 280 279 279 279 279 279 278
263 262 262 262 262 262 263 264 264 265 265 266 268 269 270 271 273 275 277 279 282 284 286 287 288 289 290 290 289 289 288 287 286 286 286 284 282 282 282 281 281 281 281
262 261 261 261 261 261 262 262 263 263 264 265 266 267 268 269 271 273 275 277 279 281 283 284 285 286 288 288 289 289 289 288 286 285 285 285 284 284 284 284 283 283 283
261 260 260 259 259 260 261 261 261 262 263 264 265 266 267 268 269 270 272 274 277 279 281 282 283 284 285 287 287 288 288 287 287 286 285 284 284 284 284 285 285 285 285
261 260 259 258 258 258 259 260 260 261 261 262 263 264 266 266 266 268 270 272 275 277 279 280 282 283 284 285 286 287 287 286 286 285 285 284 284 284 284 285 286 286 286
260 259 258 258 258 257 257 258 258 259 260 261 262 263 265 266 266 267 269 271 274 276 277 279 281 282 283 284 284 284 285 285 285 285 284 284 285 286 286 286 287 287 287
259 258 258 257 257 257 257 257 257 258 259 259 260 262 263 265 266 266 268 270 272 274 275 277 279 280 281 282 282 283 284 284 284 284 284 285 285 287 288 288 288 288 288
257 257 257 256 256 256 256 257 257 258 258 259 260 261 262 264 265 267 268 269 271 272 273 275 277 278 280 281 281 282 282 283 284 284 284 285 286 287 288 289 289 289 289
256 256 255 255 255 255 255 256 257 257 258 259 260 260 261 262 264 266 266 267 269 270 272 274 276 277 279 280 282 282 283 283 284 284 285 286 288 288 289 290 290 291 290
255 255 255 255 255 255 256 256 257 258 258 258 259 259 260 261 263 264 265 265 266 268 271 273 275 276 278 279 281 282 283 284 284 285 286 287 288 289 289 290 291 292 292
Height
5819 5817 5814 5812 5809 5806 5802 5799 5795 5792 5788 5784 5781 5777 5774 5771 5768 5767 5765 5764 5763 5763 5763 5763 5764 5765 5766 5767 5769 5770 5772 5775 5777 5779 5782 5784 5787 5789 5792 5794 5796 5799 5802
5817 5815 5813 5810 5808 5805 5802 5799 5796 5792 5789 5785 5782 5778 5775 5772 5769 5767 5766 5764 5764 5763 5763 5763 5763 5764 5764 5765 5766 5768 5770 5772 5774 5776 5778 5780 5782 5784 5786 5788 5790 5793 5795
5815 5813 5811 5809 5807 5804 5801 5798 5795 5792 5789 5786 5782 5779 5776 5773 5770 5768 5766 5765 5764 5763 5763 5762 5762 5763 5763 5764 5765 5766 5767 5769 5771 5773 5774 5776 5778 5779 5781 5783 5784 5786 5788
5813 5811 5809 5807 5805 5802 5800 5797 5795 5792 5789 5786 5783 5779 5776 5774 5771 5769 5767 5765 5764 5763 5762 5762 5762 5762 5762 5763 5763 5764 5765 5767 5768 5770 5771 5772 5774 5775 5776 5777 5779 5780 5782
5810 5808 5807 5805 5803 5801 5798 5796 5794 5791 5788 5786 5783 5780 5777 5774 5771 5769 5767 5765 5764 5763 5762 5761 5761 5761 5761 5761 5762 5763 5764 5765 5766 5767 5768 5769 5770 5771 5771 5772 5773 5774 5775
5806 5805 5804 5802 5800 5799 5796 5794 5792 5790 5787 5785 5782 5780 5777 5774 5772 5769 5767 5766 5764 5763 5762 5761 5760 5760 5760 5760 5760 5761 5761 5762 5763 5764 5764 5765 5766 5766 5767 5767 5768 5769 5770
5802 5801 5800 5799 5797 5796 5794 5792 5790 5788 5786 5783 5781 5779 5776 5774 5771 5769 5767 5765 5764 5762 5761 5760 5759 5758 5758 5758 5758 5758 5759 5759 5760 5760 5761 5761 5761 5762 5762 5762 5763 5763 5764
5798 5797 5796 5795 5794 5792 5791 5789 5787 5785 5784 5782 5779 5777 5775 5773 5771 5768 5766 5765 5763 5761 5760 5758 5758 5757 5756 5756 5756 5756 5756 5756 5756 5757 5757 5757 5757 5757 5757 5757 5758 5758 5759
5793 5792 5791 5791 5790 5788 5787 5786 5784 5782 5781 5779 5777 5775 5773 5771 5769 5767 5765 5763 5761 5760 5758 5757 5756 5755 5754 5754 5753 5753 5753 5752 5752 5752 5752 5752 5752 5752 5752 5753 5753 5753 5753
5787 5787 5786 5785 5785 5784 5782 5781 5780 5778 5777 5776 5774 5772 5771 5769 5767 5765 5763 5761 5760 5758 5757 5755 5754 5753 5752 5751 5750 5750 5749 5749 5749 5748 5748 5748 5747 5747 5747 5747 5747 5748 5748
5781 5780 5780 5779 5779 5778 5777 5776 5775 5774 5773 5771 5770 5769 5767 5765 5764 5762 5760 5759 5757 5756 5754 5753 5751 5750 5749 5748 5747 5746 5746 5745 5744 5744 5743 5743 5742 5742 5742 5742 5742 5742 5742
5774 5774 5773 5773 5772 5772 5771 5770 5769 5768 5767 5766 5765 5764 5763 5761 5760 5758 5757 5755 5754 5752 5751 5749 5748 5747 5746 5745 5743 5742 5742 5741 5740 5739 5738 5738 5737 5737 5736 5736 5736 5736 5736
5767 5766 5766 5765 5765 5765 5764 5763 5763 5762 5761 5760 5760 5759 5757 5756 5755 5754 5753 5751 5750 5748 5747 5745 5744 5743 5742 5740 5739 5738 5737 5736 5735 5734 5733 5732 5731 5731 5730 5730 5729 5729 5729
5758 5758 5758 5757 5757 5757 5756 5756 5755 5755 5754 5754 5753 5752 5751 5751 5750 5748 5747 5746 5745 5743 5742 5741 5739 5738 5737 5735 5734 5733 5731 5730 5729 5728 5727 5726 5725 5724 5723 5723 5723 5722 5722
5748 5749 5748 5748 5748 5748 5748 5748 5747 5747 5747 5746 5746 5745 5745 5744 5743 5742 5741 5740 5739 5738 5736 5735 5734 5733 5731 5730 5728 5727 5725 5724 5723 5722 5721 5719 5718 5717 5716 5716 5715 5715 5715
5738 5738 5738 5738 5738 5738 5738 5739 5738 5738 5738 5738 5738 5737 5737 5736 5735 5735 5734 5733 5732 5731 5730 5729 5727 5726 5725 5723 5722 5720 5719 5718 5716 5715 5714 5712 5711 5710 5709 5709 5708 5707 5706
5726 5727 5727 5727 5728 5728 5728 5728 5729 5729 5729 5729 5729 5728 5728 5728 5727 5727 5726 5725 5725 5724 5723 5721 5720 5719 5717 5716 5714 5713 5712 5710 5709 5707 5706 5705 5704 5703 5701 5700 5699 5698 5697
5714 5714 5715 5715 5716 5716 5717 5717 5718 5718 5719 5719 5719 5719 5719 5719 5718 5718 5717 5717 5716 5716 5715 5713 5712 5711 5709 5708 5706 5705 5704 5702 5701 5699 5698 5697 5695 5694 5693 5691 5690 5689 5688
5700 5701 5701 5702 5703 5704 5705 5706 5706 5707 5708 5708 5708 5708 5709 5709 5709 5709 5708 5708 5707 5707 5706 5705 5704 5702 5701 5699 5698 5696 5695 5693 5692 5691 5689 5688 5686 5685 5684 5682 5680 5679 5677
5685 5686 5687 5688 5689 5690 5692 5693 5694 5695 5696 5696 5697 5697 5697 5698 5698 5698 5698 5698 5698 5697 5696 5695 5694 5693 5692 5690 5689 5687 5686 5684 5683 5681 5680 5678 5677 5675 5674 5672 5670 5668 5667
5671 5672 5672 5674 5675 5677 5678 5679 5681 5682 5683 5684 5685 5685 5686 5686 5687 5687 5687 5687 5687 5687 5686 5685 5684 5683 5682 5680 5679 5677 5676 5674 5673 5672 5670 5668 5667 5665 5663 5662 5660 5658 5656
5655 5656 5657 5659 5660 5662 5663 5665 5667 5668 5670 5671 5672 5673 5673 5674 5675 5675 5675 5675 5675 5675 5675 5674 5673 5672 5671 5670 5668 5667 5666 5664 5663 5661 5660 5658 5656 5655 5653 5651 5649 5646 5644
5639 5640 5642 5643 5645 5647 5648 5650 5652 5654 5656 5657 5658 5660 5660 5661 5662 5663 5663 5663 5663 5663 5662 5662 5661 5661 5660 5658 5657 5656 5655 5654 5652 5651 5649 5647 5645 5643 5641 5639 5637 5634 5632
5623 5624 5626 5628 5630 5632 5634 5636 5638 5640 5641 5643 5644 5646 5647 5648 5649 5650 5650 5650 5650 5650 5650 5650 5649 5649 5648 5647 5646 5645 5643 5642 5641 5639 5638 5636 5634 5632 5629 5627 5624 5622 5619
5607 5609 5610 5612 5614 5617 5619 5621 5623 5625 5627 5628 5630 5631 5633 5634 5635 5636 5637 5637 5638 5638 5638 5638 5637 5637 5636 5635 5634 5633 5632 5630 5629 5627 5626 5624 5622 5620 5617 5615 5612 5610 5607
5592 5594 5595 5597 5599 5601 5604 5606 5608 5610 5612 5614 5615 5617 5618 5619 5620 5622 5623 5623 5624 5624 5625 5625 5624 5624 5623 5623 5622 5621 5619 5618 5617 5615 5614 5612 5610 5607 5605 5602 5600 5597 5595